Location: Écuvilly
(49.6505°N, 2.9206°E)
Time: 16:54:04
(UTC+00:00)

RESURS DK-1 - Pass Details

Date: 17 November 2025
Orbit: 524 x 535 km, 69.9° (Epoch: 08 December)

Event Time Altitude Azimuth Distance (km) Brightness Sun altitude
Rises 17:02:40 0° 331° (NNW) 2,699 6.0 -9.7°
Reaches altitude 10° 17:04:53 10° 334° (NNW) 1,804 5.1 -10.0°
Maximum altitude 17:08:53 64° 57° (ENE) 599 2.2 -10.7°
Drops below altitude 10° 17:12:51 10° 140° (SE) 1,789 4.7 -11.3°
Sets 17:15:02 0° 143° (SE) 2,675 5.6 -11.6°
